Regional Weather Roundup
Issued by NWS

Home | Current Version | Previous Version | Graphics & Text | Print | Product List | Glossary On
Versions: 1 2 3 4 5 6 7 8 9 10 11 12 13 14 15 16 17 18 19 20 21 22 23 24 25 26 27 28 29 30 31 32 33 34 35 36 37 38 39 40 41 42 43 44 45 46 47 48 49 50
000
ASUS43 KMPX 251110
RWRMN
WEATHER ROUNDUP FOR MINNESOTA
NATIONAL WEATHER SERVICE TWIN CITIES/CHANHASSEN MN
600 AM CDT THU MAY 25 2017


NOTE: "FAIR" INDICATES FEW OR NO CLOUDS BELOW 12,000 FEET WITH NO
SIGNIFICANT WEATHER AND/OR OBSTRUCTIONS TO VISIBILITY. N/A MEANS
CURRENT SKY AND/OR WEATHER CONDITIONS ARE NOT AVAILABLE.

MNZ060>063-068>070-251200-
   Twin Cities Metro

CITY           SKY/WX    TMP DP  RH WIND       PRES   REMARKS
TWIN CITIES    PTCLDY    50  46  86 SE3       29.71R
ST PAUL        CLEAR     48  48 100 S3        29.72R
CRYSTAL        CLEAR     43  40  89 CALM      29.70R
BLAINE         CLEAR     48  48 100 CALM      29.71R
LAKEVILLE        N/A     43  43 100 CALM      29.70S FOG
EDEN PRAIRIE   CLEAR     47  45  93 E5        29.69R
SOUTH ST PAUL  CLEAR     48  47  98 S3        29.71R
LAKE ELMO      FAIR      43  43 100 CALM      29.72S
$$
MNZ001>005-007-008-013>017-022>024-027-028-251200-
   Northwest Minnesota

CITY           SKY/WX    TMP DP  RH WIND       PRES   REMARKS
BEMIDJI        CLOUDY    44  43  95 E9        29.66F
HALLOCK        MOCLDY    48  43  81 SE14      29.58S
ROSEAU         CLOUDY    46  43  87 SE9       29.65S
WARROAD        PTCLDY    46  43  87 SE10      29.67S
THIEF RVR FALL PTCLDY    47  42  83 SE14      29.63F
CROOKSTON      CLOUDY    48  43  81 SE14      29.60F
FOSSTON        CLOUDY    45  41  87 SE6       29.64F
DETROIT LAKES  MOCLDY    46  43  87 SE9       29.65S
MOORHEAD       CLOUDY    50  43  76 SE14      29.59F
PARK RAPIDS    PTCLDY    47  42  83 SE7       29.66F
MAHNOMEN       FAIR      46  43  88 SE8       29.63S
$$
MNZ006-009>011-018-025>026-251200-
   North Central Minnesota

CITY           SKY/WX    TMP DP  RH WIND       PRES   REMARKS
BAUDETTE       CLOUDY    42  39  89 SE9       29.70R
FLAG ISLAND    PTCLDY    52  43  71 SE16      29.67S
INTL FALLS     CLEAR     43  38  82 E9        29.73R
WASKISH        PTCLDY    41  39  93 E5        29.70S
BIG FORK       CLEAR     41  37  87 CALM      29.73R
LONGVILLE      CLOUDY    43  43 100 CALM      29.70S
GRAND RAPIDS   MOCLDY    38  37  97 CALM      29.75R
CRANE LAKE     CLEAR     30  30 100 CALM      29.77S
ORR            CLEAR     39  36  87 SE3       29.72R
COOK           CLEAR     36  36 100 E3        29.75R
WALKER         FAIR      45  43  91 SE7       29.68F
$$
MNZ012-019>021-037-251200-
   Northeast Minnesota

CITY           SKY/WX    TMP DP  RH WIND       PRES   REMARKS
DULUTH         CLEAR     42  41  96 E8        29.74S
ELY            CLEAR     32  32 100 CALM      29.76R
HIBBING        CLEAR     32  31  96 CALM      29.73S
EVELETH        CLEAR     37  36  94 CALM      29.76R
DULUTH HARBOR  MOCLDY    43  41  93 NE7       29.77R
TWO HARBORS    CLEAR     45  39  81 NE5       29.74S
SILVER BAY     CLEAR     37  37 100 CALM      29.75R
GRAND MARAIS     N/A     42  40  92 CALM      29.77S
G MARAIS ARPRT CLEAR     37  34  87 NE6       29.78S
$$
MNZ029>031-032-039>041-046>048-054>057-064-251200-
   West Central Minnesota

CITY           SKY/WX    TMP DP  RH WIND       PRES   REMARKS
FERGUS FALLS   PTCLDY    48  43  81 SE13      29.62F
WHEATON        PTCLDY    46  43  87 SE12      29.63F
MORRIS         CLEAR     46  45  93 SE9       29.64R
ALEXANDRIA     PTCLDY    46  43  89 SE6       29.68R
ELBOW LAKE     FAIR      48  43  82 SE10      29.64F
WADENA         CLOUDY    45  43  93 E7        29.66F
GLENWOOD       PTCLDY    43  41  93 E5        29.68R
APPLETON       CLEAR     48  45  87 SE6       29.64R
BENSON         CLEAR     48  43  81 S3        29.67R
ORTONVILLE     CLEAR     48  45  87 SE8       29.62S
MADISON        CLEAR     50  50 100 SE10      29.62R
WILLMAR        FAIR      46  45  93 SE6       29.68R
$$
MNZ033>034-036-042>043-049>051-058-059-251200-
   Central Minnesota

CITY           SKY/WX    TMP DP  RH WIND       PRES   REMARKS
ST CLOUD       CLEAR     47  46  97 E5        29.70R
SAUK CENTRE    FAIR      44  43  96 E5        29.67S
PAYNESVILLE    CLEAR     48  48 100 E5        29.68R
AITKIN         CLOUDY    45  43  93 CALM      29.70R
PINE RIVER     PTCLDY    45  45 100 E3        29.73S
BRAINERD       CLEAR     47  45  93 CALM      29.70R
STAPLES        PTCLDY    45  43  93 E3        29.68R
LONG PRAIRIE   FAIR      43  43 100 CALM      29.68S
LITTLE FALLS   CLEAR     45  43  93 E3        29.69R
LITCHFIELD     CLEAR     45  43  93 E6        29.68S
BUFFALO        CLEAR     46  44  93 CALM      29.70S
MAPLE LAKE     CLEAR     46  46  99 CALM      29.70R
HUTCHINSON     MOCLDY    45  44  97 E5        29.68F
$$
MNZ037-044-045-052-053-251200-
   East Central Minnesota

CITY           SKY/WX    TMP DP  RH WIND       PRES   REMARKS
PRINCETON      CLEAR     48  46  93 E5        29.70S
MORA           CLOUDY    45  43  93 CALM      29.73R
CAMBRIDGE      MOCLDY    50  45  81 CALM      29.70R
RUSH CITY      PTCLDY    47  46  95 NE3       29.72R
MOOSE LAKE     PTCLDY    39  37  93 NE3       29.72S
HINCKLEY       CLOUDY    46  45  93 CALM      29.73R
CLOQUET        CLEAR     39  37  93 E5        29.74R FOG
MCGREGOR       CLEAR     43  41  93 E5        29.73R
$$
MNZ071>073-080-081-089-090-097-098-251200-
   Southwest Minnesota

CITY           SKY/WX    TMP DP  RH WIND       PRES   REMARKS
MONTEVIDEO     CLEAR     45  45 100 S7        29.65R
CANBY          CLEAR     46  45  94 CALM      29.63R
MARSHALL       CLEAR     48  45  89 SE12      29.62F
REDWOOD FALLS  CLEAR     46  43  89 SE9       29.65S
OLIVIA         CLEAR     50  45  81 SE6       29.66R
PIPESTONE      CLEAR     48  43  81 S12       29.60R
WINDOM         CLEAR     48  45  87 SE9       29.65S
WORTHINGTON    PTCLDY    46  44  93 SE12      29.63F
JACKSON        CLEAR     46  43  87 CALM      29.67S
TRACY          CLEAR     48  46  93 S9        29.63F
SLAYTON        CLEAR     44  43  97 SE13      29.61F
$$
MNZ065>067-074>077-082>085-091>093-251200-
   South Central Minnesota

CITY           SKY/WX    TMP DP  RH WIND       PRES   REMARKS
MANKATO          N/A     47  46  97 SE9       29.69S
NEW ULM        CLEAR     46  45  93 SE6       29.67F
ST JAMES       CLEAR     46  45  93 SE8       29.68F
FAIRMONT       CLEAR     43  43 100 S6        29.68F
GLENCOE        CLEAR     46  46  99 E5        29.68S
FARIBAULT      CLEAR     43  43 100 CALM      29.71R FOG
OWATONNA       CLEAR     45  43  93 SE5       29.71R FOG
WASECA         CLEAR     43  43 100 SE6       29.72R
ALBERT LEA       N/A     45  45 100 CALM      29.71R
$$
MNZ078>079-086>088-094>096-251200-
   Southeast Minnesota

CITY           SKY/WX    TMP DP  RH WIND       PRES   REMARKS
ROCHESTER      MOCLDY    46  46 100 SE7       29.72R
RED WING       CLEAR     45  43  93 CALM      29.71R
STANTON        FOG       46  44  94 CALM      29.70S VSB 3/4
DODGE CENTER   FOG       45  45 100 SE6       29.71S VSB 3/4
WINONA         PTCLDY    46  45  93 NW3       29.72R
AUSTIN         MOCLDY    45  43  93 CALM      29.71R
PRESTON        CLEAR     47  46  94 CALM      29.72R
$$
ABBREVIATIONS USED IN REMARKS
   TC - TEMPERATURES IN CELSIUS
  WCI - WIND CHILL INDEX
   HX - HEAT INDEX
  VSB - VISIBILITY
$$




USA.gov is the U.S. government's official web portal to all federal, state and local government web resources and services.